GALAXY 30 (G-30)

Last updated on Mon Oct 27 2025 00:02:50 GMT+0000 (Coordinated Universal Time)

1 46114U 20056C 25299.48281037 .00000048 00000+0 00000+0 0 9999 2 46114 0.0182 257.3542 0002526 315.7165 230.8897 1.00272914 18945
UTC large
Height (km)
Speed (km/s)
/
Latitude / Longitude
Inclination (degrees)
Orbital Period (minutes)
Azimuth
Elevation
Range (km)
Doppler Factor

Next 0 passes for location: London (51.5072 / 0.1276)

Sorry there are no passes over London.